Location: Star Corral Observatory
(36.0443°N, 95.7804°W)
Time: 23:02:25
(UTC-06:00)

BlueWalker 3 - Visible Passes

Search period start: 07 December 2025 00:00
Search period end: 17 December 2025 00:00
Orbit: 455 x 462 km, 53.2° (Epoch: 06 December)

Date Brightness Start Highest point End Pass type
(mag) Time Alt. Az. Time Alt. Az. Time Alt. Az.
07 Dec 1.9 18:54:44 10° NW 18:57:56 66° NNW 18:57:56 66° NNW visible
08 Dec 1.7 18:19:57 10° NW 18:23:33 59° NE 18:25:43 21° ESE visible
08 Dec 5.2 19:59:12 10° W 19:59:36 11° WSW 19:59:36 11° WSW visible
09 Dec 2.1 17:45:11 10° NW 17:48:40 44° NE 17:52:08 10° ESE visible
09 Dec 4.6 19:23:34 10° W 19:25:55 16° SW 19:28:00 11° SSW visible
10 Dec 4.3 18:48:18 10° WNW 18:51:09 22° SW 18:53:59 10° S visible
11 Dec 3.9 18:13:09 10° WNW 18:16:20 30° SW 18:19:32 10° SSE visible
12 Dec 3.3 17:38:05 10° WNW 17:41:30 40° SW 17:44:55 10° SSE visible
